,,Stat1,,Stat2,,Stat3,,Stat4,,Wind1,,Wind1,
time,status,PR1M_SUM,status,RH1M_AVG,status,SR1M_AVG,status,TA1M_AVG,status,W1dAve1m,status,W1sAve1m,
2000-03-11, 00:01:00,VALID,0,VALID,94.5273,VALID,0.0169808,VALID,18.1535,VALID,226,VALID,0.857897,
2000-03-11, 00:02:00,VALID,0,VALID,94.8375,VALID,0,VALID,18.1281,VALID,218,VALID,1.0707,
2000-03-11, 00:03:00,VALID,0,VALID,94.9863,VALID,0,VALID,18.115,VALID,215,VALID,1.4451,
2000-03-11, 00:04:00,VALID,0,VALID,94.6087,VALID,0,VALID,18.1343,VALID,210,VALID,1.08111,
2000-03-11, 00:05:00,VALID,0,VALID,94.0428,VALID,0,VALID,18.1795,VALID,201,VALID,1.28038,
2000-03-11, 00:06:00,VALID,0,VALID,93.5672,VALID,0,VALID,18.2411,VALID,189,VALID,1.44955,
2000-03-11, 00:07:00,VALID,0,VALID,93.0013,VALID,0,VALID,18.3278,VALID,185,VALID,1.3666,
2000-03-11, 00:08:00,VALID,0,VALID,92.6415,VALID,-0.0169808,VALID,18.3991,VALID,181,VALID,1.2385,
2000-03-11, 00:09:00,VALID,0,VALID,92.2168,VALID,0.0169808,VALID,18.4311,VALID,186,VALID,1.35196,
2000-03-11, 00:10:00,VALID,0,VALID,91.8633,VALID,0,VALID,18.48,VALID,192,VALID,1.21636,
2000-03-11, 00:11:01,VALID,0,VALID,91.6064,VALID,0.0169808,VALID,18.5121,VALID,181,VALID,1.13842,
2000-03-11, 00:12:00,VALID,0,VALID,91.4576,VALID,0,VALID,18.5121,VALID,173,VALID,0.76888,
2000-03-11, 00:13:00,VALID,0,VALID,91.8187,VALID,0,VALID,18.4766,VALID,164,VALID,1.29688,
2000-03-11, 00:14:00,VALID,0,VALID,92.2613,VALID,-0.0169808,VALID,18.4244,VALID,171,VALID,1.36892,
2000-03-11, 00:15:00,VALID,0,VALID,92.4215,VALID,-0.0339617,VALID,18.3762,VALID,175,VALID,1.40805,
2000-03-11, 00:16:00,VALID,0,VALID,92.508,VALID,0,VALID,18.3728,VALID,190,VALID,1.66319,
2000-03-11, 00:17:00,VALID,0,VALID,92.1036,VALID,0,VALID,18.3762,VALID,200,VALID,1.70172,
2000-03-11, 00:18:00,VALID,0,VALID,92.3948,VALID,-0.0169808,VALID,18.3601,VALID,213,VALID,1.9082,
2000-03-11, 00:19:00,VALID,0,VALID,92.5792,VALID,-0.0169808,VALID,18.341,VALID,214,VALID,1.85958,
2000-03-11, 00:20:00,VALID,0,VALID,92.7381,VALID,0,VALID,18.2958,VALID,204,VALID,1.60764,
2000-03-11, 00:21:00,VALID,0,VALID,92.9505,VALID,0,VALID,18.257,VALID,201,VALID,1.45192,
2000-03-11, 00:22:01,VALID,0,VALID,93.1565,VALID,0,VALID,18.234,VALID,199,VALID,1.29319,
2000-03-11, 00:23:00,VALID,0,VALID,92.9212,VALID,0,VALID,18.2049,VALID,194,VALID,1.10717,
2000-03-11, 00:24:00,VALID,0,VALID,93.0102,VALID,0,VALID,18.1722,VALID,195,VALID,0.980252,
2000-03-11, 00:25:00,VALID,0,VALID,93.4439,VALID,0,VALID,18.1498,VALID,186,VALID,1.30749,
2000-03-11, 00:26:00,VALID,0,VALID,93.4553,VALID,0,VALID,18.1532,VALID,183,VALID,1.54145,
2000-03-11, 00:27:00,VALID,0,VALID,93.0306,VALID,0,VALID,18.198,VALID,188,VALID,1.36959,
2000-03-11, 00:28:00,VALID,0,VALID,92.8297,VALID,0,VALID,18.2372,VALID,192,VALID,1.16949,
2000-03-11, 00:29:00,VALID,0,VALID,92.6542,VALID,0,VALID,18.266,VALID,197,VALID,1.21915,
2000-03-11, 00:30:00,VALID,0,VALID,92.5105,VALID,0,VALID,18.2918,VALID,202,VALID,1.30968,
2000-03-11, 00:31:00,VALID,0,VALID,92.2066,VALID,0,VALID,18.3497,VALID,201,VALID,1.35757,
2000-03-11, 00:32:00,VALID,0,VALID,91.9396,VALID,0.0169808,VALID,18.3919,VALID,202,VALID,1.44032,
2000-03-11, 00:33:01,VALID,0,VALID,91.787,VALID,0.0169808,VALID,18.3951,VALID,196,VALID,1.4395,
2000-03-11, 00:34:00,VALID,0,VALID,91.7946,VALID,0,VALID,18.3629,VALID,181,VALID,1.19097,
2000-03-11, 00:35:00,VALID,0,VALID,92.1951,VALID,0,VALID,18.3211,VALID,174,VALID,1.28405,
2000-03-11, 00:36:00,VALID,0,VALID,92.3325,VALID,0,VALID,18.3084,VALID,165,VALID,1.29796,
2000-03-11, 00:37:00,VALID,0,VALID,92.0705,VALID,0,VALID,18.3181,VALID,153,VALID,1.30389,
2000-03-11, 00:38:00,VALID,0,VALID,92.2549,VALID,0,VALID,18.3114,VALID,167,VALID,1.20508,
2000-03-11, 00:39:00,VALID,0,VALID,92.1099,VALID,0,VALID,18.305,VALID,160,VALID,1.34976,
2000-03-11, 00:40:00,VALID,0,VALID,92.2231,VALID,0,VALID,18.3147,VALID,180,VALID,1.32075,
2000-03-11, 00:41:00,VALID,0,VALID,91.9891,VALID,0.0169808,VALID,18.3502,VALID,186,VALID,0.952724,
2000-03-11, 00:42:00,VALID,0,VALID,91.8518,VALID,0,VALID,18.3827,VALID,193,VALID,1.40994,
2000-03-11, 00:43:00,VALID,0,VALID,91.3152,VALID,-0.0169808,VALID,18.4309,VALID,200,VALID,1.19752,
2000-03-11, 00:44:00,VALID,0,VALID,91.0761,VALID,-0.0169808,VALID,18.4796,VALID,197,VALID,1.25065,
2000-03-11, 00:45:00,VALID,0,VALID,90.9897,VALID,0,VALID,18.4989,VALID,201,VALID,0.834736,
2000-03-11, 00:46:00,VALID,0,VALID,90.86,VALID,-0.0169808,VALID,18.5374,VALID,205,VALID,1.11285,
2000-03-11, 00:47:00,VALID,0,VALID,90.8434,VALID,0,VALID,18.5439,VALID,202,VALID,1.35978,
2000-03-11, 00:48:00,VALID,0,VALID,90.9401,VALID,-0.0169808,VALID,18.5407,VALID,197,VALID,1.18555,
2000-03-11, 00:49:00,VALID,0,VALID,90.6565,VALID,-0.0169808,VALID,18.5111,VALID,190,VALID,1.10296,
2000-03-11, 00:50:00,VALID,0,VALID,90.7366,VALID,0,VALID,18.5377,VALID,186,VALID,1.32378,
2000-03-11, 00:51:00,VALID,0,VALID,90.8193,VALID,0,VALID,18.5633,VALID,185,VALID,1.14303,
2000-03-11, 00:52:00,VALID,0,VALID,90.7913,VALID,0.0339617,VALID,18.5693,VALID,191,VALID,1.22678,
2000-03-11, 00:53:00,VALID,0,VALID,90.4925,VALID,0.0169808,VALID,18.6048,VALID,181,VALID,1.28385,
2000-03-11, 00:54:00,VALID,0,VALID,90.2915,VALID,0.0169808,VALID,18.6567,VALID,178,VALID,1.44379,
2000-03-11, 00:55:00,VALID,0,VALID,90.0487,VALID,0,VALID,18.6885,VALID,184,VALID,1.61298,
2000-03-11, 00:56:00,VALID,0,VALID,89.7537,VALID,0.0169808,VALID,18.7277,VALID,179,VALID,1.22439,
2000-03-11, 00:57:00,VALID,0,VALID,89.5693,VALID,0.0169808,VALID,18.7632,VALID,176,VALID,1.08454,
2000-03-11, 00:58:00,VALID,0,VALID,89.6481,VALID,0.0339617,VALID,18.7436,VALID,170,VALID,0.985243,
2000-03-11, 00:59:00,VALID,0,VALID,90.0131,VALID,0,VALID,18.6825,VALID,174,VALID,0.94351,
2000-03-11, 01:00:00,VALID,0,VALID,90.6298,VALID,0,VALID,18.5921,VALID,186,VALID,1.22201,
2000-03-11, 01:01:00,VALID,0,VALID,90.6845,VALID,0,VALID,18.5075,VALID,191,VALID,1.30549,
2000-03-11, 01:02:00,VALID,0,VALID,90.9617,VALID,0.0509425,VALID,18.4694,VALID,191,VALID,1.38585,
2000-03-11, 01:03:00,VALID,0,VALID,90.6196,VALID,0.0169808,VALID,18.4341,VALID,202,VALID,1.19772,
2000-03-11, 01:04:00,VALID,0,VALID,91.0952,VALID,0,VALID,18.3949,VALID,200,VALID,1.04753,
2000-03-11, 01:05:00,VALID,0,VALID,91.3177,VALID,0.0169808,VALID,18.3463,VALID,190,VALID,1.15445,
2000-03-11, 01:06:00,VALID,0,VALID,91.3101,VALID,0,VALID,18.3137,VALID,184,VALID,1,
2000-03-11, 01:07:00,VALID,0,VALID,91.6674,VALID,0,VALID,18.2722,VALID,169,VALID,1.01342,
2000-03-11, 01:08:00,VALID,0,VALID,91.3572,VALID,0,VALID,18.2466,VALID,162,VALID,1.15061,
2000-03-11, 01:09:00,VALID,0,VALID,91.2618,VALID,0,VALID,18.2167,VALID,164,VALID,1.22837,
2000-03-11, 01:10:00,VALID,0,VALID,90.776,VALID,0,VALID,18.2303,VALID,162,VALID,1.21788,
2000-03-11, 01:11:00,VALID,0,VALID,90.5751,VALID,0,VALID,18.1848,VALID,165,VALID,0.872997,
2000-03-11, 01:12:00,VALID,0,VALID,91.6344,VALID,0,VALID,18.0947,VALID,148,VALID,1.1582,
2000-03-11, 01:13:00,VALID,0,VALID,91.9612,VALID,0,VALID,18.0721,VALID,159,VALID,1.29968,
2000-03-11, 01:14:00,VALID,0,VALID,91.6178,VALID,0,VALID,18.1237,VALID,178,VALID,1.40734,
2000-03-11, 01:15:00,VALID,0,VALID,90.9757,VALID,0,VALID,18.1911,VALID,173,VALID,1.2522,
2000-03-11, 01:16:00,VALID,0,VALID,91.1512,VALID,0,VALID,18.2275,VALID,175,VALID,1.2691,
2000-03-11, 01:17:00,VALID,0,VALID,91.1906,VALID,0.0169808,VALID,18.1911,VALID,186,VALID,1.29407,
2000-03-11, 01:18:00,VALID,0,VALID,91.1245,VALID,0,VALID,18.1595,VALID,192,VALID,1.40516,
2000-03-11, 01:19:00,VALID,0,VALID,91.0431,VALID,0,VALID,18.1083,VALID,198,VALID,1.32632,
2000-03-11, 01:20:00,VALID,0,VALID,91.5047,VALID,0,VALID,18.0465,VALID,198,VALID,1.49805,
2000-03-11, 01:21:00,VALID,0,VALID,91.8137,VALID,-0.0169808,VALID,18.0179,VALID,216,VALID,1.58494,
2000-03-11, 01:22:00,VALID,0,VALID,92.2524,VALID,0,VALID,17.9946,VALID,214,VALID,1.70595,
2000-03-11, 01:23:00,VALID,0,VALID,92.3134,VALID,0,VALID,18.0271,VALID,214,VALID,1.61719,
2000-03-11, 01:24:00,VALID,0,VALID,91.7628,VALID,0,VALID,18.0721,VALID,195,VALID,1.97201,
2000-03-11, 01:25:00,VALID,0,VALID,91.1677,VALID,-0.0169808,VALID,18.1625,VALID,198,VALID,1.46895,
2000-03-11, 01:26:00,VALID,0,VALID,91.0113,VALID,-0.0509425,VALID,18.2277,VALID,199,VALID,1.43902,
2000-03-11, 01:27:00,VALID,0,VALID,91.0469,VALID,-0.101885,VALID,18.2416,VALID,196,VALID,1.54988,
2000-03-11, 01:28:00,VALID,0,VALID,91.3266,VALID,-0.101885,VALID,18.2388,VALID,192,VALID,1.42535,
2000-03-11, 01:29:00,VALID,0,VALID,91.5365,VALID,-0.0849042,VALID,18.2097,VALID,188,VALID,1.23878,
2000-03-11, 01:30:00,VALID,0,VALID,91.4156,VALID,-0.118866,VALID,18.1807,VALID,165,VALID,0.592665,
2000-03-11, 01:31:00,VALID,0,VALID,91.7183,VALID,-0.118866,VALID,18.1382,VALID,243,VALID,0.443309,
2000-03-11, 01:32:00,VALID,0,VALID,91.8912,VALID,-0.118866,VALID,18.1258,VALID,278,VALID,0.468316,
2000-03-11, 01:33:00,VALID,0,VALID,92.1278,VALID,-0.118866,VALID,18.1002,VALID,235,VALID,0.18129,
2000-03-11, 01:34:00,VALID,0,VALID,92.2676,VALID,-0.101885,VALID,18.0963,VALID,307,VALID,0.273872,
2000-03-11, 01:35:00,VALID,0,VALID,92.2905,VALID,-0.135847,VALID,18.1357,VALID,332,VALID,0,
2000-03-11, 01:36:00,VALID,0,VALID,92.1799,VALID,-0.152827,VALID,18.1385,VALID,325,VALID,0,
2000-03-11, 01:37:00,VALID,0,VALID,91.6293,VALID,-0.118866,VALID,18.1198,VALID,280,VALID,0,
2000-03-11, 01:38:00,VALID,0,VALID,92.204,VALID,-0.152827,VALID,18.0778,VALID,236,VALID,0.400391,
2000-03-11, 01:39:00,VALID,0,VALID,92.5474,VALID,-0.152827,VALID,18.0257,VALID,191,VALID,0.482572,
2000-03-11, 01:40:00,VALID,0,VALID,93.0077,VALID,-0.152827,VALID,18.0003,VALID,187,VALID,0.644965,
2000-03-11, 01:41:00,VALID,0,VALID,92.9708,VALID,-0.0679233,VALID,18.0091,VALID,193,VALID,0.70012,
2000-03-11, 01:42:00,VALID,0,VALID,92.3859,VALID,0,VALID,18.0082,VALID,195,VALID,0.609592,
2000-03-11, 01:43:00,VALID,0,VALID,92.7254,VALID,0,VALID,17.9791,VALID,188,VALID,0.959535,
2000-03-11, 01:44:00,VALID,0,VALID,92.9263,VALID,-0.0339617,VALID,17.9695,VALID,188,VALID,1.2691,
2000-03-11, 01:45:00,VALID,0,VALID,92.817,VALID,0,VALID,17.9697,VALID,171,VALID,1.01102,
2000-03-11, 01:46:00,VALID,0,VALID,92.4228,VALID,0.0169808,VALID,17.9568,VALID,159,VALID,0.96658,
2000-03-11, 01:47:00,VALID,0,VALID,92.0158,VALID,0,VALID,17.8948,VALID,160,VALID,0.915465,
2000-03-11, 01:48:00,VALID,0,VALID,92.7559,VALID,0,VALID,17.8502,VALID,167,VALID,0.605686,
2000-03-11, 01:49:00,VALID,0,VALID,93.0102,VALID,0.0339617,VALID,17.7885,VALID,171,VALID,0.466747,
2000-03-11, 01:50:00,VALID,0,VALID,93.5443,VALID,0,VALID,17.7304,VALID,164,VALID,0.572266,
2000-03-11, 01:51:00,VALID,0,VALID,92.4278,VALID,0,VALID,17.6329,VALID,150,VALID,0.626202,
2000-03-11, 01:52:00,VALID,0,VALID,93.7834,VALID,0,VALID,17.5791,VALID,162,VALID,0.630642,
2000-03-11, 01:53:00,VALID,0,VALID,93.0675,VALID,0,VALID,17.524,VALID,207,VALID,0.396234,
2000-03-11, 01:54:00,VALID,0,VALID,93.2569,VALID,0,VALID,17.4625,VALID,227,VALID,0.549913,
2000-03-11, 01:55:00,VALID,0,VALID,93.9907,VALID,-0.0339617,VALID,17.4145,VALID,214,VALID,0.357572,
2000-03-11, 01:56:00,VALID,0,VALID,94.2272,VALID,0,VALID,17.382,VALID,233,VALID,0.531901,
2000-03-11, 01:57:00,VALID,0,VALID,94.6977,VALID,0,VALID,17.3626,VALID,236,VALID,0.742588,
2000-03-11, 01:58:00,VALID,0,VALID,94.9736,VALID,-0.0339617,VALID,17.3693,VALID,230,VALID,0.444878,
2000-03-11, 01:59:00,VALID,0,VALID,95.0563,VALID,-0.0339617,VALID,17.382,VALID,234,VALID,0.586739,
2000-03-11, 02:00:00,VALID,0,VALID,94.7117,VALID,0,VALID,17.3981,VALID,217,VALID,0.434028,
2000-03-11, 02:01:00,VALID,0,VALID,94.2424,VALID,0,VALID,17.4048,VALID,226,VALID,0.373998,
2000-03-11, 02:02:00,VALID,0,VALID,94.217,VALID,0,VALID,17.3949,VALID,218,VALID,0.368924,
2000-03-11, 02:03:00,VALID,0,VALID,94.2577,VALID,0.0169808,VALID,17.3822,VALID,211,VALID,0.215345,
2000-03-11, 02:04:00,VALID,0,VALID,94.9583,VALID,0.0169808,VALID,17.3654,VALID,210,VALID,0.392578,
2000-03-11, 02:05:00,VALID,0,VALID,95.0283,VALID,0,VALID,17.3592,VALID,180,VALID,0.495593,
2000-03-11, 02:06:00,VALID,0,VALID,94.7778,VALID,-0.0169808,VALID,17.3596,VALID,198,VALID,0.0332031,
2000-03-11, 02:07:00,VALID,0,VALID,94.3976,VALID,0,VALID,17.3209,VALID,204,VALID,0,
2000-03-11, 02:08:00,VALID,0,VALID,94.6048,VALID,0,VALID,17.2983,VALID,204,VALID,0,
2000-03-11, 02:09:00,VALID,0,VALID,95.186,VALID,-0.0339617,VALID,17.2983,VALID,204,VALID,0,
2000-03-11, 02:10:00,VALID,0,VALID,95.3462,VALID,-0.0169808,VALID,17.2987,VALID,215,VALID,0,
2000-03-11, 02:11:00,VALID,0,VALID,94.9723,VALID,-0.0509425,VALID,17.2888,VALID,236,VALID,0,
2000-03-11, 02:12:00,VALID,0,VALID,95.1059,VALID,-0.0339617,VALID,17.292,VALID,236,VALID,0,
2000-03-11, 02:13:00,VALID,0,VALID,95.1364,VALID,0,VALID,17.2856,VALID,235,VALID,0,
2000-03-11, 02:14:00,VALID,0,VALID,95.0791,VALID,0.0169808,VALID,17.2886,VALID,227,VALID,0,
2000-03-11, 02:15:00,VALID,0,VALID,94.9151,VALID,0,VALID,17.2951,VALID,223,VALID,0,
2000-03-11, 02:16:00,VALID,0,VALID,95.1554,VALID,-0.0169808,VALID,17.3241,VALID,223,VALID,0,
2000-03-11, 02:17:00,VALID,0,VALID,94.6061,VALID,-0.0169808,VALID,17.3084,VALID,223,VALID,0,
2000-03-11, 02:18:00,VALID,0,VALID,94.704,VALID,-0.0339617,VALID,17.3338,VALID,238,VALID,0,
2000-03-11, 02:19:00,VALID,0,VALID,95.4581,VALID,0.0169808,VALID,17.4242,VALID,337,VALID,0,
2000-03-11, 02:20:00,VALID,0,VALID,95.0804,VALID,0.0169808,VALID,17.5214,VALID,340,VALID,0,
2000-03-11, 02:21:00,VALID,0,VALID,92.4113,VALID,0,VALID,17.4437,VALID,26,VALID,0,
2000-03-11, 02:22:01,VALID,0,VALID,92.5614,VALID,0,VALID,17.2888,VALID,79,VALID,0.42296,
2000-03-11, 02:23:00,VALID,0,VALID,93.5329,VALID,0.0169808,VALID,17.1472,VALID,80,VALID,0.776242,
2000-03-11, 02:24:00,VALID,0,VALID,94.7854,VALID,-0.0169808,VALID,17.0665,VALID,84,VALID,1.08789,
2000-03-11, 02:25:00,VALID,0,VALID,95.7696,VALID,0,VALID,17.0792,VALID,86,VALID,1.19391,
2000-03-11, 02:26:00,VALID,0,VALID,95.9222,VALID,0,VALID,17.1823,VALID,92,VALID,0.902127,
2000-03-11, 02:27:00,VALID,0,VALID,95.5115,VALID,0,VALID,17.2215,VALID,98,VALID,0.614183,
2000-03-11, 02:28:00,VALID,0,VALID,95.6755,VALID,0,VALID,17.2531,VALID,97,VALID,0.159939,
2000-03-11, 02:29:00,VALID,0,VALID,95.6437,VALID,0,VALID,17.2852,VALID,118,VALID,0.159856,
2000-03-11, 02:30:00,VALID,0,VALID,95.3525,VALID,0,VALID,17.3405,VALID,120,VALID,0.00434028,
2000-03-11, 02:31:00,VALID,0,VALID,95.322,VALID,0,VALID,17.3661,VALID,120,VALID,0,
2000-03-11, 02:32:00,VALID,0,VALID,95.1135,VALID,0,VALID,17.3919,VALID,120,VALID,0,
2000-03-11, 02:33:00,VALID,0,VALID,95.1504,VALID,0,VALID,17.4212,VALID,120,VALID,0,
2000-03-11, 02:34:00,VALID,0,VALID,95.294,VALID,0,VALID,17.4377,VALID,120,VALID,0,
2000-03-11, 02:35:00,VALID,0,VALID,94.793,VALID,0.0169808,VALID,17.4502,VALID,120,VALID,0,
2000-03-11, 02:36:00,VALID,0,VALID,94.0186,VALID,0.0509425,VALID,17.4242,VALID,130,VALID,0.333767,
2000-03-11, 02:37:00,VALID,0,VALID,94.0669,VALID,0,VALID,17.3856,VALID,134,VALID,0.555489,
2000-03-11, 02:38:00,VALID,0,VALID,94.217,VALID,0,VALID,17.3241,VALID,134,VALID,0.531684,
2000-03-11, 02:39:00,VALID,0,VALID,94.3759,VALID,0.0169808,VALID,17.3019,VALID,134,VALID,0.276042,
2000-03-11, 02:40:00,VALID,0,VALID,95.0156,VALID,0.0339617,VALID,17.2789,VALID,132,VALID,0.482856,
2000-03-11, 02:41:00,VALID,0,VALID,95.2801,VALID,-0.0169808,VALID,17.2957,VALID,133,VALID,0.436498,
2000-03-11, 02:42:00,VALID,0,VALID,95.1389,VALID,-0.101885,VALID,17.3291,VALID,130,VALID,0.210938,
2000-03-11, 02:43:00,VALID,0,VALID,95.2775,VALID,-0.0849042,VALID,17.3842,VALID,130,VALID,0.236378,
2000-03-11, 02:44:01,VALID,0,VALID,94.9736,VALID,-0.101885,VALID,17.4393,VALID,130,VALID,0.199436,
2000-03-11, 02:45:00,VALID,0,VALID,94.4141,VALID,-0.0849042,VALID,17.5004,VALID,130,VALID,0.197716,
2000-03-11, 02:46:00,VALID,0,VALID,93.7376,VALID,-0.101885,VALID,17.5774,VALID,130,VALID,0.0991753,
2000-03-11, 02:47:00,VALID,0,VALID,93.5405,VALID,-0.101885,VALID,17.6127,VALID,130,VALID,0.280649,
2000-03-11, 02:48:00,VALID,0,VALID,93.0408,VALID,-0.101885,VALID,17.5897,VALID,130,VALID,0.34158,
2000-03-11, 02:49:00,VALID,0,VALID,92.7712,VALID,-0.101885,VALID,17.5613,VALID,129,VALID,0.499599,
2000-03-11, 02:50:00,VALID,0,VALID,93.1845,VALID,-0.101885,VALID,17.4872,VALID,121,VALID,0.662543,
2000-03-11, 02:51:00,VALID,0,VALID,93.6944,VALID,-0.0849042,VALID,17.4418,VALID,122,VALID,0.384415,
2000-03-11, 02:52:00,VALID,0,VALID,93.6206,VALID,-0.101885,VALID,17.4352,VALID,122,VALID,0.370009,
2000-03-11, 02:53:00,VALID,0,VALID,93.6435,VALID,-0.101885,VALID,17.4453,VALID,122,VALID,0.273237,
2000-03-11, 02:54:00,VALID,0,VALID,93.4693,VALID,-0.0849042,VALID,17.4513,VALID,122,VALID,0.0221354,
2000-03-11, 02:55:01,VALID,0,VALID,93.2442,VALID,-0.101885,VALID,17.4677,VALID,122,VALID,0.0270433,
2000-03-11, 02:56:00,VALID,0,VALID,93.234,VALID,-0.0849042,VALID,17.4933,VALID,122,VALID,0,
2000-03-11, 02:57:00,VALID,0,VALID,93.4172,VALID,-0.0169808,VALID,17.5217,VALID,139,VALID,0.0845353,
2000-03-11, 02:58:00,VALID,0,VALID,93.1463,VALID,0,VALID,17.5341,VALID,147,VALID,0.471354,
2000-03-11, 02:59:00,VALID,0,VALID,92.7585,VALID,0,VALID,17.5247,VALID,146,VALID,0.45633,
2000-03-11, 03:00:00,VALID,0,VALID,92.7,VALID,0,VALID,17.5145,VALID,143,VALID,0.372396,
2000-03-11, 03:01:00,VALID,0,VALID,92.953,VALID,0,VALID,17.479,VALID,147,VALID,0.0488782,
2000-03-11, 03:02:00,VALID,0,VALID,92.9085,VALID,0,VALID,17.4435,VALID,159,VALID,0.200738,
2000-03-11, 03:03:00,VALID,0,VALID,93.4083,VALID,0,VALID,17.4338,VALID,184,VALID,0.347155,
2000-03-11, 03:04:00,VALID,0,VALID,93.8292,VALID,0,VALID,17.4212,VALID,192,VALID,0.267144,
2000-03-11, 03:05:00,VALID,0,VALID,93.8584,VALID,0,VALID,17.4506,VALID,192,VALID,0.324119,
2000-03-11, 03:06:01,VALID,0,VALID,93.5163,VALID,0.0169808,VALID,17.4829,VALID,192,VALID,0.0342882,
2000-03-11, 03:07:00,VALID,0,VALID,93.056,VALID,0.0169808,VALID,17.5051,VALID,191,VALID,0.286659,
2000-03-11, 03:08:00,VALID,0,VALID,93.2607,VALID,0,VALID,17.5148,VALID,190,VALID,0.793186,
2000-03-11, 03:09:00,VALID,0,VALID,93.3358,VALID,0,VALID,17.5438,VALID,177,VALID,0.83153,
2000-03-11, 03:10:00,VALID,0,VALID,92.9683,VALID,0,VALID,17.6277,VALID,173,VALID,0.923828,
2000-03-11, 03:11:00,VALID,0,VALID,92.4228,VALID,0.0169808,VALID,17.7244,VALID,176,VALID,0.830128,
2000-03-11, 03:12:00,VALID,0,VALID,92.0909,VALID,0,VALID,17.7958,VALID,185,VALID,0.811415,
2000-03-11, 03:13:00,VALID,0,VALID,91.82,VALID,0,VALID,17.7993,VALID,183,VALID,0.570513,
2000-03-11, 03:14:00,VALID,0,VALID,91.923,VALID,0,VALID,17.7506,VALID,187,VALID,0.716797,
2000-03-11, 03:15:00,VALID,0,VALID,92.0298,VALID,0,VALID,17.6764,VALID,182,VALID,0.552083,
2000-03-11, 03:16:00,VALID,0,VALID,91.8683,VALID,-0.0169808,VALID,17.5922,VALID,188,VALID,0.39171,
2000-03-11, 03:17:01,VALID,0,VALID,92.1888,VALID,0,VALID,17.5053,VALID,204,VALID,0.55629,
2000-03-11, 03:18:00,VALID,0,VALID,92.9797,VALID,0,VALID,17.4181,VALID,208,VALID,1.09071,
2000-03-11, 03:19:00,VALID,0,VALID,93.8609,VALID,-0.0169808,VALID,17.3179,VALID,204,VALID,1.18009,
2000-03-11, 03:20:00,VALID,0,VALID,94.2564,VALID,0.0169808,VALID,17.2499,VALID,197,VALID,1.0115,
2000-03-11, 03:21:00,VALID,0,VALID,95.3398,VALID,0.0509425,VALID,17.2342,VALID,186,VALID,1.35296,
2000-03-11, 03:22:00,VALID,0,VALID,95.4136,VALID,0,VALID,17.2116,VALID,192,VALID,1.52083,
2000-03-11, 03:23:00,VALID,0,VALID,95.79,VALID,0,VALID,17.1821,VALID,193,VALID,1.55689,
2000-03-11, 03:24:00,VALID,0,VALID,95.8981,VALID,0,VALID,17.1726,VALID,189,VALID,1.42296,
2000-03-11, 03:25:00,VALID,0,VALID,96.2427,VALID,0.0169808,VALID,17.1789,VALID,194,VALID,1.74359,
2000-03-11, 03:26:00,VALID,0,VALID,96.132,VALID,0.0169808,VALID,17.2114,VALID,194,VALID,1.34028,
2000-03-11, 03:27:00,VALID,0,VALID,96.0481,VALID,0,VALID,17.2699,VALID,196,VALID,1.58754,
2000-03-11, 03:28:01,VALID,0,VALID,95.7811,VALID,0,VALID,17.2927,VALID,195,VALID,1.34614,
2000-03-11, 03:29:00,VALID,0,VALID,95.6692,VALID,-0.0169808,VALID,17.2989,VALID,197,VALID,1.32512,
2000-03-11, 03:30:00,VALID,0,VALID,95.4454,VALID,-0.0339617,VALID,17.3252,VALID,197,VALID,1.32856,
2000-03-11, 03:31:00,VALID,0,VALID,95.3678,VALID,0,VALID,17.3245,VALID,199,VALID,1.39523,
2000-03-11, 03:32:00,VALID,0,VALID,95.3297,VALID,0,VALID,17.3409,VALID,194,VALID,1.46289,
2000-03-11, 03:33:00,VALID,0,VALID,95.1974,VALID,-0.0169808,VALID,17.3796,VALID,198,VALID,1.47576,
2000-03-11, 03:34:00,VALID,0,VALID,94.7638,VALID,0,VALID,17.4285,VALID,195,VALID,1.23806,
2000-03-11, 03:35:00,VALID,0,VALID,94.5285,VALID,0,VALID,17.441,VALID,191,VALID,1.15805,
2000-03-11, 03:36:00,VALID,0,VALID,94.4179,VALID,0,VALID,17.4631,VALID,197,VALID,1.19054,
2000-03-11, 03:37:00,VALID,0,VALID,94.437,VALID,-0.0339617,VALID,17.4961,VALID,200,VALID,1.20653,
2000-03-11, 03:38:00,VALID,0,VALID,94.3658,VALID,-0.0169808,VALID,17.5514,VALID,205,VALID,1.04145,
2000-03-11, 03:39:01,VALID,0,VALID,94.2602,VALID,-0.0339617,VALID,17.5705,VALID,225,VALID,0.929688,
2000-03-11, 03:40:00,VALID,0,VALID,94.217,VALID,-0.0169808,VALID,17.574,VALID,232,VALID,1.06879,
2000-03-11, 03:41:00,VALID,0,VALID,94.3747,VALID,-0.0169808,VALID,17.58,VALID,229,VALID,1.23658,
2000-03-11, 03:42:00,VALID,0,VALID,94.4535,VALID,-0.118866,VALID,17.594,VALID,228,VALID,1.16298,
2000-03-11, 03:43:00,VALID,0,VALID,94.4116,VALID,-0.101885,VALID,17.5947,VALID,236,VALID,0.916266,
2000-03-11, 03:44:00,VALID,0,VALID,94.4917,VALID,-0.101885,VALID,17.5647,VALID,240,VALID,0.879557,
2000-03-11, 03:45:00,VALID,0,VALID,94.2755,VALID,-0.135847,VALID,17.5262,VALID,247,VALID,0.782051,
2000-03-11, 03:46:00,VALID,0,VALID,93.9334,VALID,-0.101885,VALID,17.4778,VALID,242,VALID,0.750868,
2000-03-11, 03:47:00,VALID,0,VALID,93.8406,VALID,-0.118866,VALID,17.4201,VALID,230,VALID,0.820513,
2000-03-11, 03:48:00,VALID,0,VALID,94.1089,VALID,-0.101885,VALID,17.3782,VALID,216,VALID,0.79796,
2000-03-11, 03:49:00,VALID,0,VALID,94.9113,VALID,-0.135847,VALID,17.3459,VALID,213,VALID,0.835938,
2000-03-11, 03:50:00,VALID,0,VALID,94.9914,VALID,-0.101885,VALID,17.3362,VALID,196,VALID,0.636936,
2000-03-11, 03:51:00,VALID,0,VALID,94.9405,VALID,-0.118866,VALID,17.3357,VALID,180,VALID,0.872596,
2000-03-11, 03:52:00,VALID,0,VALID,94.2323,VALID,-0.118866,VALID,17.3136,VALID,163,VALID,0.757813,
2000-03-11, 03:53:00,VALID,0,VALID,93.6906,VALID,-0.118866,VALID,17.2363,VALID,155,VALID,0.690104,
2000-03-11, 03:54:00,VALID,0,VALID,93.0204,VALID,-0.118866,VALID,17.1038,VALID,147,VALID,0.518446,
2000-03-11, 03:55:00,VALID,0,VALID,94.1432,VALID,-0.101885,VALID,16.9936,VALID,154,VALID,0.684896,
2000-03-11, 03:56:00,VALID,0,VALID,94.7612,VALID,-0.118866,VALID,16.9389,VALID,161,VALID,0.734158,
2000-03-11, 03:57:00,VALID,0,VALID,95.6069,VALID,-0.0169808,VALID,16.9151,VALID,168,VALID,0.658854,
2000-03-11, 03:58:00,VALID,0,VALID,94.8147,VALID,0,VALID,16.857,VALID,159,VALID,0.651259,
2000-03-11, 03:59:00,VALID,0,VALID,94.3721,VALID,0,VALID,16.7638,VALID,150,VALID,0.722155,
2000-03-11, 04:00:00,VALID,0,VALID,95.0652,VALID,0,VALID,16.6797,VALID,149,VALID,0.579861,
2000-03-11, 04:01:00,VALID,0,VALID,95.3614,VALID,0,VALID,16.6248,VALID,151,VALID,0.405248,
2000-03-11, 04:02:00,VALID,0,VALID,96.4919,VALID,0,VALID,16.6377,VALID,163,VALID,0.508247,
2000-03-11, 04:03:00,VALID,0,VALID,97.3248,VALID,-0.0509425,VALID,16.6892,VALID,183,VALID,0.609575,
2000-03-11, 04:04:00,VALID,0,VALID,97.2587,VALID,-0.0169808,VALID,16.7214,VALID,195,VALID,0.723741,
2000-03-11, 04:05:00,VALID,0,VALID,97.3286,VALID,0,VALID,16.7281,VALID,199,VALID,1.08333,
2000-03-11, 04:06:00,VALID,0,VALID,97.8449,VALID,0,VALID,16.8604,VALID,200,VALID,1.16211,
2000-03-11, 04:07:00,VALID,0,VALID,97.7432,VALID,0,VALID,16.9631,VALID,206,VALID,1.09716,
2000-03-11, 04:08:00,VALID,0,VALID,97.4405,VALID,0,VALID,17.0734,VALID,203,VALID,0.891927,
2000-03-11, 04:09:00,VALID,0,VALID,96.9281,VALID,0,VALID,17.1668,VALID,216,VALID,0.659255,
2000-03-11, 04:10:00,VALID,0,VALID,96.2045,VALID,-0.0169808,VALID,17.212,VALID,224,VALID,0.46224,
2000-03-11, 04:11:00,VALID,0,VALID,95.9311,VALID,0,VALID,17.2505,VALID,225,VALID,0.513021,
2000-03-11, 04:12:00,VALID,0,VALID,95.027,VALID,0,VALID,17.2249,VALID,227,VALID,0.424045,